ARIANE 1 DEB, 25098

Orbit data source: Space-Track

ARIANE 1 DEB, 25098 is space debris in HEO originally from a launch on Mon, 24 Dec 1979 UTC launched from the French Guiana (FRGUI). Debris objects in space refer to the collection of defunct objects orbiting the Earth. Examples of debris include non-operational satellites, rocket bodies, and fragments generated from explosions, collisions, or faulty payload assembly.

Loading next visibility...
Identifier
25098, 1979-104D
Orbit
HEO
Country
Flag of FRFR
Related business
Manufacturer
ESA
Mission
Spacecraft
Bus & Motor
Unknown
Mass
Unknown
Launch date (UTC)
1979-12-24 (46 years ago)
Launch vehicle
Unknown
Launch site
French Guiana (FRGUI)
Object type
Payload
Rocket body
Debris
Shape & HBR
Unknown shape, 0.2 m
Radar Cross Section
Medium (>0.1 m² and <1 m²)

Expand to show TLE details & history
Last TLE update: 2 days ago

TLE from 2 days ago
0 ARIANE 1 DEB
1 25098U 79104D   26171.42390529  .00000185  00000-0  52571-3 0  9993
2 25098  17.5967 304.4451 5349275 346.4795   3.4432  4.79284166443829
Epoch: 2026-06-20T10:10Z
TLE epoch observation values (Epoch: 2026-06-20T10:10:25.417Z)
Latitude
-0.00002°
Longitude
-116.80335°
Altitude
595.917 km
Speed
9.353 km/s
True Right ascension
20h 17m 45s
True Declination
0° 00' 00"
Sunlit
Object was in full shadow at epoch
Visualization orbit readout
Latitude
Unknown
Longitude
Unknown
Altitude
Unknown
Speed
Unknown
Apparent Right ascension
Unknown
Apparent Declination
Unknown
Sunlit
N/A
Visualization observer readout
Local Sidereal Time
23:21:07
Azimuth
Unknown
Elevation
Unknown
Doppler factor
Unknown
Orbital elements
Apogee altitude
16,436.761 km
Perigee altitude
534.62 km
Semi-major axis
14,863.828 km
Eccentricity
0.53493
Inclination
17.5967°
RAAN
304.4451°
Arg. of periapsis
346.4795°
True anomaly
13.36512°
Mean anomaly
3.4432°
Eccentric anomaly
7.38012°
Mean motion
1.1977 °/min
Orbital period
300.58 mins
BSTAR
0.00052571
Loading maneuver chart data...
Computing Atmospheric mass density...
Loading historical data...
Loading historical data...
Loading historical data...
Loading historical data...
Loading historical data...
Loading historical data...
Loading historical data...

Documentation

Showing up to 5 results
|